This demonstration page uses our WeatherBlox Daily Observations layout. Learn more.

Left ArrowRight Arrow

36.19886, -115.1175

Hourly Observations for December 23, 2015

Temp ( °F °C ) Dew Point ( °F °C ) Humidity (%) Winds ( mph kmh ) Pressure ( in mb ) Visibility ( mi km ) Precip ( " mm )
12:53 am 00:53 Clear 45 7.2 36 2.2 71 71 Calm 29.65 1004 10 16 0.00 0.00
1:53 am 01:53 Clear 42 5.6 35 1.7 76 76 N 3 6 29.66 1004 10 16 0.00 0.00
2:53 am 02:53 Clear 42 5.6 35 1.7 76 76 NNW 5 7 29.66 1005 10 16 0.00 0.00
3:53 am 03:53 Clear 41 5 35 1.7 79 79 N 3 6 29.66 1005 10 16 0.00 0.00
4:53 am 04:53 Clear 41 5 35 1.7 79 79 NW 3 6 29.67 1005 10 16 0.00 0.00
5:53 am 05:53 Clear 41 5 34 1.1 76 76 N 6 9 29.68 1005 10 16 0.00 0.00
6:53 am 06:53 Sunny 40 4.4 34 1.1 79 79 NNW 6 9 29.70 1006 10 16 0.00 0.00
7:53 am 07:53 Sunny 42 5.6 34 1.1 73 73 NW 5 7 29.70 1006 10 16 0.00 0.00
8:53 am 08:53 Sunny 48 8.9 37 2.8 66 66 N 3 6 29.73 1007 10 16 0.00 0.00
9:53 am 09:53 Sunny 52 11.1 37 2.8 57 57 VRB 3 6 29.73 1007 10 16 0.00 0.00
10:53 am 10:53 Sunny 55 12.8 36 2.2 49 49 N 7 11 29.72 1006 10 16 0.00 0.00
11:53 am 11:53 Sunny 57 13.9 38 3.3 49 49 ENE 7 11 29.70 1006 10 16 0.00 0.00
12:53 pm 12:53 Sunny 59 15 37 2.8 44 44 ENE 6 9 29.69 1005 10 16 0.00 0.00
1:53 pm 13:53 Sunny 61 16.1 29 -1.7 30 30 N 12 19 29.68 1005 10 16 0.00 0.00
2:53 pm 14:53 Mostly Sunny 58 14.4 35 1.7 42 42 E 5 7 29.70 1006 10 16 0.00 0.00
3:53 pm 15:53 Sunny 56 13.3 36 2.2 47 47 E 8 13 29.72 1007 10 16 0.00 0.00
4:53 pm 16:53 Clear 53 11.7 35 1.7 51 51 E 7 11 29.74 1007 10 16 0.00 0.00
5:53 pm 17:53 Clear 52 11.1 35 1.7 53 53 E 5 7 29.77 1008 10 16 0.00 0.00
6:53 pm 18:53 Mostly Cloudy 52 11.1 32 0 47 47 Calm 29.80 1009 10 16 0.00 0.00
7:53 pm 19:53 Cloudy 50 10 26 -3.3 39 39 E 5 7 29.82 1010 10 16 0.00 0.00
8:53 pm 20:53 Cloudy 50 10 23 -5 35 35 ENE 3 6 29.83 1010 10 16 0.00 0.00
9:53 pm 21:53 Cloudy 49 9.4 20 -6.7 32 32 NNE 8 13 29.85 1011 10 16 0.00 0.00
10:53 pm 22:53 Mostly Cloudy 49 9.4 18 -7.8 29 29 NNE 9 15 29.86 1011 10 16 0.00 0.00
11:53 pm 23:53 Cloudy 49 9.4 17 -8.3 28 28 N 6 9 29.87 1011 10 16 0.00 0.00

Powered by AerisWeather